Regional Weather Roundup
Issued by NWS Charleston, WV

Home | Current Version | Previous Version | Text Only | Print | Product List | Glossary Off
Versions: 1 2 3 4 5 6 7 8 9 10 11 12 13 14 15 16 17 18 19 20 21 22 23 24 25 26 27 28 29 30 31 32 33 34 35 36 37 38 39 40 41 42 43 44 45 46 47 48 49 50

960
ASUS41 KRLX 171010
RWRRLX
West Virginia Regional Weather Roundup
National Weather Service Charleston WV
600 AM EDT TUE OCT 17 2017

Note: "fair" indicates few or no clouds below 12,000 feet with no
significant weather and/or obstructions to visibility.

WVZ003-171100-
Northern Panhandle of West Virginia

CITY           SKY/WX    TMP DP  RH WIND       PRES   REMARKS
WHEELING       CLEAR     36  34  92 CALM      30.34R
$$

WVZ009-171100-
Northwest West Virginia

CITY           SKY/WX    TMP DP  RH WIND       PRES   REMARKS
PARKERSBURG    FOG       36  35  96 CALM      30.38R VSB 1/2
$$

WVZ006-171100-
Western West Virginia

CITY           SKY/WX    TMP DP  RH WIND       PRES   REMARKS
HUNTINGTON     CLEAR     39  36  89 CALM      30.35R
$$

WVZ015-171100-
West Central West Virginia

CITY           SKY/WX    TMP DP  RH WIND       PRES   REMARKS
CHARLESTON     FOG       39  38  96 CALM      30.35R VSB 1/4
$$

WVZ022-031-171100-
North Central West Virginia

CITY           SKY/WX    TMP DP  RH WIND       PRES   REMARKS
CLARKSBURG     FOG       34  33  96 CALM      30.35R VSB 3/4
MORGANTOWN     CLEAR     36  34  92 CALM      30.35R
$$

WVZ025-035-042-045-171100-
Southern West Virginia

CITY           SKY/WX    TMP DP  RH WIND       PRES   REMARKS
BECKLEY        CLEAR     35  33  92 CALM      30.32R
LOGAN          FOG       39  39 100 CALM      30.34R VSB<1/4
BLUEFIELD      CLEAR     36  32  85 SW5       30.32R
LEWISBURG      FOG       31  31  99 CALM      30.33R VSB<1/4
$$

WVZ047-171100-
Northern Mountains of West Virginia

CITY           SKY/WX    TMP DP  RH WIND       PRES   REMARKS
ELKINS         FOG       36  34  92 CALM      30.35R VSB 3/4
$$

WVZ052-171100-
Eastern Panhandle of West Virginia

CITY           SKY/WX    TMP DP  RH WIND       PRES   REMARKS
MARTINSBURG    CLEAR     37  33  85 CALM      30.33R
PETERSBURG     CLEAR     33  33  98 CALM      30.36R
$$




USA.gov is the U.S. government's official web portal to all federal, state and local government web resources and services.